STARLINK-31803

decayed
NORAD ID: 59649 Int'l Des: 2024-082 Owner: SPXS Country: US Constellation: starlink
LEOCIRCULAR
Gruppe

Über STARLINK-31803

Beschreibung wird geladen...

Höhenverlauf

Altitude vs Time

uPlot chart will show altitude changes over time

Zweizeiliger Elementsatz

1 59649U 24082U 25122.32936477 .06019998 67038-1 10944-1 0 9998
2 59649 42.9888 64.5919 0015516 214.9354 282.5467 16.04810068 57622
Epoch: 2. Mai 2025 • Age: 3292 hours

Aktueller Status

Position data unavailable
Startdatum 3. Mai 2024
Alter 1.3 years
Verglühungsdatum 3. Mai 2025
Typ internet

Technische Details

Klassifizierung Payload
Masse 730.00 kg
Trockenmasse 700.00 kg
Gesamtmasse 730.00 kg
Länge 0.30 m
Durchmesser 4.10 m
Spannweite 29.00 m
Form Box + pan
Hersteller SPXS
Bus-Typ Starlink V2M
Phasenstatus Unknown Transfer Status
Besitzer/Staat SPXS/US

Große Konstellationen

Loading constellations...